Time,TemperatureF,DewpointF,PressureIn,WindDirection,WindDirectionDegrees,WindSpeedMPH,WindSpeedGustMPH,Humidity,HourlyPrecipIn,Conditions,Clouds,dailyrainin,SolarRadiationWatts/m^2,SoftwareType,DateUTC
2013-06-15 00:00:00,82.6,78.3,29.86,SSE,155,5.0,13.2,87,0.00,,---,0.01,0.00,VWS V14.01,2013-06-15 05:00:00,
2013-06-15 00:01:00,82.6,78.3,29.87,SSE,164,6.0,13.2,87,0.00,,---,0.01,0.00,VWS V14.01,2013-06-15 05:01:00,
2013-06-15 00:05:00,82.4,78.1,29.86,ESE,113,3.0,12.2,87,0.00,,---,0.00,0.00,VWS V14.01,2013-06-15 05:05:00,
2013-06-15 00:06:00,82.4,78.1,29.87,ESE,113,5.0,12.2,87,0.00,,---,0.00,0.00,VWS V14.01,2013-06-15 05:06:00,
2013-06-15 00:10:00,82.2,78.3,29.86,SE,139,3.0,11.2,88,0.00,,---,0.00,0.00,VWS V14.01,2013-06-15 05:10:00,
2013-06-15 00:11:00,82.2,78.3,29.87,SE,139,4.0,11.2,88,0.00,,---,0.00,0.00,VWS V14.01,2013-06-15 05:11:00,
2013-06-15 00:15:00,82.2,78.3,29.87,SE,134,9.0,15.2,88,0.00,,---,0.00,0.00,VWS V14.01,2013-06-15 05:15:00,
2013-06-15 00:16:00,82.2,78.3,29.87,SSE,155,7.0,15.2,88,0.00,,---,0.00,0.00,VWS V14.01,2013-06-15 05:16:00,
2013-06-15 00:20:00,82.2,78.3,29.87,SE,138,3.0,13.2,88,0.00,,---,0.00,0.00,VWS V14.01,2013-06-15 05:20:00,
2013-06-15 00:21:00,82.2,78.3,29.87,SE,138,1.0,13.2,88,0.00,,---,0.00,0.00,VWS V14.01,2013-06-15 05:21:00,
2013-06-15 00:25:00,82.2,78.3,29.87,SE,145,7.0,11.2,88,0.00,,---,0.00,0.00,VWS V14.01,2013-06-15 05:25:00,
2013-06-15 00:26:00,82.2,78.3,29.87,SE,143,10.0,11.2,88,0.00,,---,0.00,0.00,VWS V14.01,2013-06-15 05:26:00,
2013-06-15 00:30:00,82.4,78.1,29.87,SE,141,8.0,12.2,87,0.00,,---,0.00,0.00,VWS V14.01,2013-06-15 05:30:00,
2013-06-15 00:31:00,82.2,77.9,29.87,SSE,153,4.0,12.2,87,0.00,,---,0.00,0.00,VWS V14.01,2013-06-15 05:31:00,
2013-06-15 00:35:00,82.4,78.1,29.87,SE,144,4.0,11.2,87,0.00,,---,0.00,0.00,VWS V14.01,2013-06-15 05:35:00,
2013-06-15 00:36:00,82.4,78.1,29.87,SSE,148,3.0,11.2,87,0.00,,---,0.00,0.00,VWS V14.01,2013-06-15 05:36:00,
2013-06-15 00:40:00,82.6,78.3,29.87,SSE,167,4.0,11.2,87,0.00,,---,0.00,0.00,VWS V14.01,2013-06-15 05:40:00,
2013-06-15 00:41:00,82.6,78.3,29.87,SSE,155,6.0,11.2,87,0.00,,---,0.00,0.00,VWS V14.01,2013-06-15 05:41:00,
2013-06-15 00:45:00,82.6,78.3,29.87,SE,146,7.0,10.2,87,0.00,,---,0.00,0.00,VWS V14.01,2013-06-15 05:45:00,
2013-06-15 00:46:00,82.6,78.3,29.87,SE,146,1.0,10.2,87,0.00,,---,0.00,0.00,VWS V14.01,2013-06-15 05:46:00,
2013-06-15 00:50:00,82.4,78.1,29.87,SSE,150,5.0,12.2,87,0.00,,---,0.00,0.00,VWS V14.01,2013-06-15 05:50:00,
2013-06-15 00:51:00,82.4,78.1,29.87,SSE,148,6.0,12.2,87,0.00,,---,0.00,0.00,VWS V14.01,2013-06-15 05:51:00,
2013-06-15 00:55:00,82.2,77.9,29.87,SE,136,6.0,12.2,87,0.00,,---,0.00,0.00,VWS V14.01,2013-06-15 05:55:00,
2013-06-15 00:56:00,82.2,77.9,29.87,SE,136,4.0,12.2,87,0.00,,---,0.00,0.00,VWS V14.01,2013-06-15 05:56:00,
2013-06-15 01:00:00,82.4,77.8,29.86,South,169,8.0,15.2,86,0.00,,---,0.00,0.00,VWS V14.01,2013-06-15 06:00:00,
2013-06-15 01:01:00,82.2,77.6,29.86,SSE,158,6.0,15.2,86,0.00,,---,0.00,0.00,VWS V14.01,2013-06-15 06:01:00,
2013-06-15 01:05:00,82.4,77.8,29.86,SE,130,9.0,15.2,86,0.00,,---,0.00,0.00,VWS V14.01,2013-06-15 06:05:00,
2013-06-15 01:06:00,82.6,78.0,29.86,SSE,150,7.0,14.2,86,0.00,,---,0.00,0.00,VWS V14.01,2013-06-15 06:06:00,
2013-06-15 01:10:00,82.2,77.9,29.86,SSE,164,3.0,12.2,87,0.00,,---,0.00,0.00,VWS V14.01,2013-06-15 06:10:00,
2013-06-15 01:11:00,82.2,77.9,29.86,SE,140,3.0,12.2,87,0.00,,---,0.00,0.00,VWS V14.01,2013-06-15 06:11:00,
2013-06-15 01:15:00,82.2,77.9,29.86,South,175,11.0,12.2,87,0.00,,---,0.00,0.00,VWS V14.01,2013-06-15 06:15:00,
2013-06-15 01:16:00,82.2,77.9,29.87,SE,128,5.0,10.2,87,0.00,,---,0.00,0.00,VWS V14.01,2013-06-15 06:16:00,
2013-06-15 01:20:00,82.0,78.1,29.86,SSE,150,4.0,13.2,88,0.00,,---,0.00,0.00,VWS V14.01,2013-06-15 06:20:00,
2013-06-15 01:21:00,82.0,78.1,29.87,SSE,150,5.0,13.2,88,0.00,,---,0.00,0.00,VWS V14.01,2013-06-15 06:21:00,
2013-06-15 01:25:00,82.0,77.8,29.86,SE,143,5.0,12.2,87,0.00,,---,0.00,0.00,VWS V14.01,2013-06-15 06:25:00,
2013-06-15 01:26:00,82.0,77.8,29.87,SE,144,6.0,12.2,87,0.00,,---,0.00,0.00,VWS V14.01,2013-06-15 06:26:00,
2013-06-15 01:30:00,82.0,77.8,29.86,SE,131,9.0,15.2,87,0.00,,---,0.00,0.00,VWS V14.01,2013-06-15 06:30:00,
2013-06-15 01:31:00,82.0,77.8,29.86,SE,126,6.0,14.2,87,0.00,,---,0.00,0.00,VWS V14.01,2013-06-15 06:31:00,
2013-06-15 01:35:00,82.0,77.8,29.86,SE,137,6.0,13.2,87,0.00,,---,0.00,0.00,VWS V14.01,2013-06-15 06:35:00,
2013-06-15 01:36:00,82.0,77.8,29.86,SE,136,7.0,13.2,87,0.00,,---,0.00,0.00,VWS V14.01,2013-06-15 06:36:00,
2013-06-15 01:40:00,82.2,77.9,29.86,SSE,154,4.0,11.2,87,0.00,,---,0.00,0.00,VWS V14.01,2013-06-15 06:40:00,
2013-06-15 01:41:00,82.2,77.9,29.86,SE,142,9.0,11.2,87,0.00,,---,0.00,0.00,VWS V14.01,2013-06-15 06:41:00,
2013-06-15 01:45:00,82.2,77.9,29.85,South,173,9.0,14.2,87,0.00,,---,0.00,0.00,VWS V14.01,2013-06-15 06:45:00,
2013-06-15 01:46:00,82.2,77.9,29.85,SSE,150,7.0,14.2,87,0.00,,---,0.00,0.00,VWS V14.01,2013-06-15 06:46:00,
2013-06-15 01:50:00,82.2,77.9,29.85,SE,138,1.0,11.2,87,0.00,,---,0.00,0.00,VWS V14.01,2013-06-15 06:50:00,
2013-06-15 01:51:00,82.2,77.9,29.85,SE,138,4.0,11.2,87,0.00,,---,0.00,0.00,VWS V14.01,2013-06-15 06:51:00,
2013-06-15 01:55:00,82.0,78.1,29.85,SE,135,4.0,11.2,88,0.00,,---,0.00,0.00,VWS V14.01,2013-06-15 06:55:00,
2013-06-15 01:56:00,82.0,78.1,29.85,SE,138,4.0,11.2,88,0.00,,---,0.00,0.00,VWS V14.01,2013-06-15 06:56:00,
2013-06-15 02:00:00,81.8,77.9,29.85,SE,146,5.0,8.2,88,0.00,,---,0.00,0.00,VWS V14.01,2013-06-15 07:00:00,
2013-06-15 02:01:00,81.8,77.9,29.85,SE,128,7.0,8.2,88,0.00,,---,0.00,0.00,VWS V14.01,2013-06-15 07:01:00,
2013-06-15 02:05:00,81.8,77.9,29.85,SE,146,2.0,12.2,88,0.00,,---,0.00,0.00,VWS V14.01,2013-06-15 07:05:00,
2013-06-15 02:06:00,81.8,77.9,29.85,SSE,148,4.0,12.2,88,0.00,,---,0.00,0.00,VWS V14.01,2013-06-15 07:06:00,
2013-06-15 02:10:00,81.8,77.9,29.85,SE,144,4.0,13.2,88,0.00,,---,0.00,0.00,VWS V14.01,2013-06-15 07:10:00,
2013-06-15 02:11:00,81.8,77.9,29.85,SE,144,4.0,13.2,88,0.00,,---,0.00,0.00,VWS V14.01,2013-06-15 07:11:00,
2013-06-15 02:15:00,81.6,77.7,29.84,SE,143,8.0,11.2,88,0.00,,---,0.00,0.00,VWS V14.01,2013-06-15 07:15:00,
2013-06-15 02:16:00,81.8,77.9,29.84,SE,129,3.0,11.2,88,0.00,,---,0.00,0.00,VWS V14.01,2013-06-15 07:16:00,
2013-06-15 02:20:00,81.6,77.7,29.84,SE,126,4.0,12.2,88,0.00,,---,0.00,0.00,VWS V14.01,2013-06-15 07:20:00,
2013-06-15 02:21:00,81.6,77.7,29.84,SE,126,5.0,12.2,88,0.00,,---,0.00,0.00,VWS V14.01,2013-06-15 07:21:00,
2013-06-15 02:25:00,81.6,78.1,29.84,SE,131,4.0,8.2,89,0.00,,---,0.00,0.00,VWS V14.01,2013-06-15 07:25:00,
2013-06-15 02:26:00,81.6,78.1,29.84,SE,131,1.0,8.2,89,0.00,,---,0.00,0.00,VWS V14.01,2013-06-15 07:26:00,
2013-06-15 02:30:00,81.4,77.8,29.84,SE,144,5.0,11.2,89,0.00,,---,0.00,0.00,VWS V14.01,2013-06-15 07:30:00,
2013-06-15 02:31:00,81.4,77.8,29.84,SSE,147,3.0,11.2,89,0.00,,---,0.00,0.00,VWS V14.01,2013-06-15 07:31:00,
2013-06-15 02:35:00,81.4,77.5,29.84,SE,129,5.0,10.2,88,0.00,,---,0.00,0.00,VWS V14.01,2013-06-15 07:35:00,
2013-06-15 02:36:00,81.4,77.8,29.84,SE,140,4.0,10.2,89,0.00,,---,0.00,0.00,VWS V14.01,2013-06-15 07:36:00,
2013-06-15 02:40:00,81.4,77.5,29.84,SE,146,6.0,12.2,88,0.00,,---,0.00,0.00,VWS V14.01,2013-06-15 07:40:00,
2013-06-15 02:41:00,81.4,77.5,29.84,SE,132,6.0,11.2,88,0.00,,---,0.00,0.00,VWS V14.01,2013-06-15 07:41:00,
2013-06-15 02:45:00,81.6,77.7,29.83,SSE,160,5.0,12.2,88,0.00,,---,0.00,0.00,VWS V14.01,2013-06-15 07:45:00,
2013-06-15 02:46:00,81.6,77.7,29.83,SSE,150,4.0,12.2,88,0.00,,---,0.00,0.00,VWS V14.01,2013-06-15 07:46:00,
2013-06-15 02:50:00,81.8,77.9,29.83,SE,139,4.0,11.2,88,0.00,,---,0.00,0.00,VWS V14.01,2013-06-15 07:50:00,
2013-06-15 02:51:00,81.8,77.9,29.83,SE,140,5.0,11.2,88,0.00,,---,0.00,0.00,VWS V14.01,2013-06-15 07:51:00,
2013-06-15 02:55:00,81.8,77.6,29.83,SSE,164,5.0,15.2,87,0.00,,---,0.00,0.00,VWS V14.01,2013-06-15 07:55:00,
2013-06-15 02:56:00,81.8,77.6,29.83,SE,141,7.0,15.2,87,0.00,,---,0.00,0.00,VWS V14.01,2013-06-15 07:56:00,
2013-06-15 03:00:00,81.8,77.9,29.82,SSE,160,9.0,15.2,88,0.00,,---,0.00,0.00,VWS V14.01,2013-06-15 08:00:00,
2013-06-15 03:01:00,81.8,77.9,29.82,ESE,115,7.0,15.2,88,0.00,,---,0.00,0.00,VWS V14.01,2013-06-15 08:01:00,
2013-06-15 03:05:00,81.6,77.7,29.82,South,173,7.0,15.2,88,0.00,,---,0.00,0.00,VWS V14.01,2013-06-15 08:05:00,
2013-06-15 03:06:00,81.6,77.7,29.82,SE,135,3.0,15.2,88,0.00,,---,0.00,0.00,VWS V14.01,2013-06-15 08:06:00,
2013-06-15 03:10:00,81.6,77.7,29.82,SE,143,3.0,14.2,88,0.00,,---,0.00,0.00,VWS V14.01,2013-06-15 08:10:00,
2013-06-15 03:11:00,81.6,77.7,29.82,SE,143,4.0,14.2,88,0.00,,---,0.00,0.00,VWS V14.01,2013-06-15 08:11:00,
2013-06-15 03:15:00,81.8,77.9,29.83,SSE,165,5.0,12.2,88,0.00,,---,0.00,0.00,VWS V14.01,2013-06-15 08:15:00,
2013-06-15 03:16:00,81.8,77.9,29.82,SSE,165,4.0,12.2,88,0.00,,---,0.00,0.00,VWS V14.01,2013-06-15 08:16:00,
2013-06-15 03:20:00,81.6,77.7,29.83,SE,127,6.0,10.2,88,0.00,,---,0.00,0.00,VWS V14.01,2013-06-15 08:20:00,
2013-06-15 03:21:00,81.6,77.7,29.82,SSE,157,5.0,10.2,88,0.00,,---,0.00,0.00,VWS V14.01,2013-06-15 08:21:00,
2013-06-15 03:25:00,81.4,77.5,29.83,SSE,157,4.0,12.2,88,0.00,,---,0.00,0.00,VWS V14.01,2013-06-15 08:25:00,
2013-06-15 03:26:00,81.4,77.5,29.82,SSW,192,3.0,12.2,88,0.00,,---,0.00,0.00,VWS V14.01,2013-06-15 08:26:00,
2013-06-15 03:30:00,81.4,77.5,29.82,SE,142,6.0,10.2,88,0.00,,---,0.00,0.00,VWS V14.01,2013-06-15 08:30:00,
2013-06-15 03:31:00,81.4,77.5,29.82,SE,144,3.0,10.2,88,0.00,,---,0.00,0.00,VWS V14.01,2013-06-15 08:31:00,
2013-06-15 03:35:00,81.2,77.3,29.82,SE,146,4.0,7.2,88,0.00,,---,0.00,0.00,VWS V14.01,2013-06-15 08:35:00,
2013-06-15 03:36:00,81.2,77.3,29.82,SE,146,2.0,7.2,88,0.00,,---,0.00,0.00,VWS V14.01,2013-06-15 08:36:00,
2013-06-15 03:40:00,81.4,77.5,29.82,SSE,155,6.0,12.2,88,0.00,,---,0.00,0.00,VWS V14.01,2013-06-15 08:40:00,
2013-06-15 03:41:00,81.2,77.3,29.82,SSE,155,5.0,12.2,88,0.00,,---,0.00,0.00,VWS V14.01,2013-06-15 08:41:00,
2013-06-15 03:45:00,81.4,77.5,29.83,SSE,167,5.0,12.2,88,0.00,,---,0.00,0.00,VWS V14.01,2013-06-15 08:45:00,
2013-06-15 03:46:00,81.4,77.5,29.82,SE,144,5.0,12.2,88,0.00,,---,0.00,0.00,VWS V14.01,2013-06-15 08:46:00,
2013-06-15 03:50:00,81.4,77.5,29.83,SSE,166,5.0,10.2,88,0.00,,---,0.00,0.00,VWS V14.01,2013-06-15 08:50:00,
2013-06-15 03:51:00,81.4,77.5,29.82,SSE,151,1.0,10.2,88,0.00,,---,0.00,0.00,VWS V14.01,2013-06-15 08:51:00,
2013-06-15 03:55:00,81.6,77.7,29.83,SE,138,4.0,12.2,88,0.00,,---,0.00,0.00,VWS V14.01,2013-06-15 08:55:00,
2013-06-15 03:56:00,81.6,77.7,29.82,SSE,157,9.0,12.2,88,0.00,,---,0.00,0.00,VWS V14.01,2013-06-15 08:56:00,
2013-06-15 04:00:00,81.6,77.4,29.83,SSE,152,2.0,12.2,87,0.00,,---,0.00,0.00,VWS V14.01,2013-06-15 09:00:00,
2013-06-15 04:01:00,81.6,77.4,29.83,SSE,152,7.0,12.2,87,0.00,,---,0.00,0.00,VWS V14.01,2013-06-15 09:01:00,
2013-06-15 04:05:00,81.8,77.6,29.83,SSE,165,10.0,11.2,87,0.00,,---,0.00,0.00,VWS V14.01,2013-06-15 09:05:00,
2013-06-15 04:06:00,81.8,77.6,29.83,SSE,147,5.0,11.2,87,0.00,,---,0.00,0.00,VWS V14.01,2013-06-15 09:06:00,
2013-06-15 04:10:00,81.6,77.4,29.83,South,173,4.0,12.2,87,0.00,,---,0.00,0.00,VWS V14.01,2013-06-15 09:10:00,
2013-06-15 04:11:00,81.6,77.4,29.83,SSE,157,6.0,12.2,87,0.00,,---,0.00,0.00,VWS V14.01,2013-06-15 09:11:00,
2013-06-15 04:15:00,81.4,77.2,29.83,SE,144,3.0,14.2,87,0.00,,---,0.00,0.00,VWS V14.01,2013-06-15 09:15:00,
2013-06-15 04:16:00,81.4,77.2,29.83,SE,144,5.0,14.2,87,0.00,,---,0.00,0.00,VWS V14.01,2013-06-15 09:16:00,
2013-06-15 04:20:00,81.6,77.7,29.83,SE,136,3.0,12.2,88,0.00,,---,0.00,0.00,VWS V14.01,2013-06-15 09:20:00,
2013-06-15 04:21:00,81.6,77.7,29.83,SSE,162,4.0,12.2,88,0.00,,---,0.00,0.00,VWS V14.01,2013-06-15 09:21:00,
2013-06-15 04:25:00,81.6,77.7,29.83,South,170,6.0,11.2,88,0.00,,---,0.00,0.00,VWS V14.01,2013-06-15 09:25:00,
2013-06-15 04:26:00,81.6,77.7,29.83,SSE,148,8.0,11.2,88,0.00,,---,0.00,0.00,VWS V14.01,2013-06-15 09:26:00,
2013-06-15 04:30:00,81.4,77.5,29.83,SSE,152,4.0,11.2,88,0.00,,---,0.00,0.00,VWS V14.01,2013-06-15 09:30:00,
2013-06-15 04:31:00,81.4,77.5,29.83,SSE,151,2.0,11.2,88,0.00,,---,0.00,0.00,VWS V14.01,2013-06-15 09:31:00,
2013-06-15 04:35:00,81.4,77.8,29.83,SSE,150,4.0,13.2,89,0.00,,---,0.00,0.00,VWS V14.01,2013-06-15 09:35:00,
2013-06-15 04:36:00,81.4,77.8,29.83,SSE,150,6.0,13.2,89,0.00,,---,0.00,0.00,VWS V14.01,2013-06-15 09:36:00,
2013-06-15 04:40:00,81.2,77.7,29.83,SE,142,2.0,8.2,89,0.00,,---,0.00,0.00,VWS V14.01,2013-06-15 09:40:00,
2013-06-15 04:41:00,81.4,77.8,29.83,SE,142,4.0,8.2,89,0.00,,---,0.00,0.00,VWS V14.01,2013-06-15 09:41:00,
2013-06-15 04:45:00,81.2,77.7,29.83,SSE,153,5.0,11.2,89,0.00,,---,0.00,0.00,VWS V14.01,2013-06-15 09:45:00,
2013-06-15 04:46:00,81.2,77.7,29.83,SSE,162,10.0,11.2,89,0.00,,---,0.00,0.00,VWS V14.01,2013-06-15 09:46:00,
2013-06-15 04:50:00,81.2,77.7,29.83,SSE,159,3.0,12.2,89,0.00,,---,0.00,0.00,VWS V14.01,2013-06-15 09:50:00,
2013-06-15 04:55:00,81.1,77.6,29.83,SE,136,5.0,12.2,89,0.00,,---,0.00,0.00,VWS V14.01,2013-06-15 09:55:00,
2013-06-15 05:00:00,81.2,77.7,29.82,SSE,151,3.0,10.2,89,0.00,,---,0.00,0.00,VWS V14.01,2013-06-15 10:00:00,
2013-06-15 05:05:00,81.4,77.8,29.82,SE,146,4.0,12.2,89,0.00,,---,0.00,0.00,VWS V14.01,2013-06-15 10:05:00,
2013-06-15 05:10:00,81.6,77.7,29.82,SSE,166,5.0,11.2,88,0.00,,---,0.00,0.00,VWS V14.01,2013-06-15 10:10:00,
2013-06-15 05:15:00,81.6,77.7,29.82,SSE,157,7.0,12.2,88,0.00,,---,0.00,0.00,VWS V14.01,2013-06-15 10:15:00,
2013-06-15 05:20:00,81.2,77.3,29.82,ESE,114,7.0,14.2,88,0.00,,---,0.00,0.00,VWS V14.01,2013-06-15 10:20:00,
2013-06-15 05:25:00,81.2,77.3,29.82,SSE,158,2.0,14.2,88,0.00,,---,0.00,0.00,VWS V14.01,2013-06-15 10:25:00,
2013-06-15 05:30:00,81.2,77.3,29.82,ESE,116,5.0,14.2,88,0.00,,---,0.00,0.00,VWS V14.01,2013-06-15 10:30:00,
2013-06-15 05:35:00,81.1,77.6,29.82,SE,126,5.0,13.2,89,0.00,,---,0.00,0.00,VWS V14.01,2013-06-15 10:35:00,
2013-06-15 05:40:00,81.1,77.6,29.82,South,178,11.0,12.2,89,0.00,,---,0.00,0.00,VWS V14.01,2013-06-15 10:40:00,
2013-06-15 05:45:00,81.1,77.2,29.84,SSE,150,8.0,12.2,88,0.00,,---,0.00,0.00,VWS V14.01,2013-06-15 10:45:00,
2013-06-15 05:50:00,81.2,77.3,29.84,SSE,164,5.0,11.2,88,0.00,,---,0.00,0.00,VWS V14.01,2013-06-15 10:50:00,
2013-06-15 05:55:00,81.2,77.7,29.84,SSE,153,10.0,12.2,89,0.00,,---,0.00,0.00,VWS V14.01,2013-06-15 10:55:00,
2013-06-15 06:00:00,81.4,76.8,29.84,SSE,157,9.0,13.2,86,0.00,,---,0.00,0.00,VWS V14.01,2013-06-15 11:00:00,
2013-06-15 06:05:00,81.2,77.0,29.84,SSE,155,3.0,14.2,87,0.00,,---,0.00,0.00,VWS V14.01,2013-06-15 11:05:00,
2013-06-15 06:10:00,81.4,76.5,29.84,SSE,168,4.0,14.2,85,0.00,,---,0.00,0.00,VWS V14.01,2013-06-15 11:10:00,
2013-06-15 06:15:00,81.6,76.7,29.84,SSE,160,4.0,13.2,85,0.00,,---,0.00,0.00,VWS V14.01,2013-06-15 11:15:00,
2013-06-15 06:20:00,81.6,77.0,29.84,SSE,155,5.0,12.2,86,0.00,,---,0.00,0.00,VWS V14.01,2013-06-15 11:20:00,
2013-06-15 06:25:00,81.6,77.0,29.84,SE,137,3.0,12.2,86,0.00,,---,0.00,0.00,VWS V14.01,2013-06-15 11:25:00,
2013-06-15 06:30:00,81.4,77.2,29.85,SE,142,5.0,11.2,87,0.00,,---,0.00,0.00,VWS V14.01,2013-06-15 11:30:00,
2013-06-15 06:35:00,81.2,77.0,29.85,SSE,147,2.0,12.2,87,0.00,,---,0.00,0.00,VWS V14.01,2013-06-15 11:35:00,
2013-06-15 06:40:00,81.2,77.0,29.85,SSE,152,9.0,10.2,87,0.00,,---,0.00,11.00,VWS V14.01,2013-06-15 11:40:00,
2013-06-15 06:45:00,81.2,77.0,29.85,SSE,161,4.0,11.2,87,0.00,,---,0.00,16.00,VWS V14.01,2013-06-15 11:45:00,
2013-06-15 06:50:00,81.2,77.0,29.85,ESE,118,5.0,11.2,87,0.00,,---,0.00,25.00,VWS V14.01,2013-06-15 11:50:00,
2013-06-15 06:55:00,81.4,77.2,29.85,SSE,156,7.0,11.2,87,0.00,,---,0.00,35.00,VWS V14.01,2013-06-15 11:55:00,
2013-06-15 07:00:00,81.6,77.0,29.86,SSE,148,4.0,11.2,86,0.00,,---,0.00,44.00,VWS V14.01,2013-06-15 12:00:00,
2013-06-15 07:05:00,81.6,77.4,29.86,SE,144,6.0,11.2,87,0.00,,---,0.00,62.00,VWS V14.01,2013-06-15 12:05:00,
2013-06-15 07:10:00,81.6,77.4,29.86,SSE,156,7.0,13.2,87,0.00,,---,0.00,72.00,VWS V14.01,2013-06-15 12:10:00,
2013-06-15 07:15:00,81.6,77.4,29.86,SE,140,3.0,13.2,87,0.00,,---,0.00,81.00,VWS V14.01,2013-06-15 12:15:00,
2013-06-15 07:20:00,82.0,77.4,29.86,SE,134,5.0,14.2,86,0.00,,---,0.00,83.00,VWS V14.01,2013-06-15 12:20:00,
2013-06-15 07:25:00,82.2,77.2,29.86,SE,142,4.0,12.2,85,0.00,,---,0.00,83.00,VWS V14.01,2013-06-15 12:25:00,
2013-06-15 07:30:00,82.4,77.4,29.87,South,181,5.0,13.2,85,0.00,,---,0.00,95.00,VWS V14.01,2013-06-15 12:30:00,
2013-06-15 07:35:00,82.2,77.2,29.87,SE,140,7.0,13.2,85,0.00,,---,0.00,105.00,VWS V14.01,2013-06-15 12:35:00,
2013-06-15 07:40:00,82.2,77.6,29.87,SSE,151,7.0,14.2,86,0.00,,---,0.00,93.00,VWS V14.01,2013-06-15 12:40:00,
2013-06-15 07:45:00,82.2,77.6,29.87,SSE,166,2.0,13.2,86,0.00,,---,0.00,113.00,VWS V14.01,2013-06-15 12:45:00,
2013-06-15 07:50:00,82.2,77.2,29.87,South,180,1.0,15.2,85,0.00,,---,0.00,144.00,VWS V14.01,2013-06-15 12:50:00,
2013-06-15 07:55:00,82.6,76.9,29.87,SE,138,12.0,15.2,83,0.00,,---,0.00,137.00,VWS V14.01,2013-06-15 12:55:00,
2013-06-15 08:00:00,83.0,77.3,29.88,SE,146,9.0,14.2,83,0.00,,---,0.00,135.00,VWS V14.01,2013-06-15 13:00:00,
2013-06-15 08:05:00,82.8,76.8,29.88,South,190,7.0,16.2,82,0.00,,---,0.00,116.00,VWS V14.01,2013-06-15 13:05:00,
2013-06-15 08:10:00,82.8,76.8,29.88,SSE,157,6.0,12.2,82,0.00,,---,0.00,107.00,VWS V14.01,2013-06-15 13:10:00,
2013-06-15 08:15:00,82.6,76.9,29.89,SSE,161,7.0,11.2,83,0.00,,---,0.00,105.00,VWS V14.01,2013-06-15 13:15:00,
2013-06-15 08:20:00,82.6,76.6,29.89,SE,140,3.0,14.2,82,0.00,,---,0.00,100.00,VWS V14.01,2013-06-15 13:20:00,
2013-06-15 08:25:00,83.0,76.9,29.89,SSE,148,6.0,12.2,82,0.00,,---,0.00,104.00,VWS V14.01,2013-06-15 13:25:00,
2013-06-15 08:30:00,83.0,76.6,29.89,South,184,1.0,13.2,81,0.00,,---,0.00,114.00,VWS V14.01,2013-06-15 13:30:00,
2013-06-15 08:35:00,83.0,76.6,29.89,SSE,155,3.0,11.2,81,0.00,,---,0.00,121.00,VWS V14.01,2013-06-15 13:35:00,
2013-06-15 08:40:00,83.2,76.8,29.89,South,173,3.0,13.2,81,0.00,,---,0.00,135.00,VWS V14.01,2013-06-15 13:40:00,
2013-06-15 08:45:00,83.2,76.8,29.89,SSE,158,9.0,11.2,81,0.00,,---,0.00,130.00,VWS V14.01,2013-06-15 13:45:00,
2013-06-15 08:50:00,83.0,76.6,29.89,SE,140,5.0,12.2,81,0.00,,---,0.00,134.00,VWS V14.01,2013-06-15 13:50:00,
2013-06-15 08:55:00,83.0,76.6,29.89,SE,146,2.0,11.2,81,0.00,,---,0.00,148.00,VWS V14.01,2013-06-15 13:55:00,
2013-06-15 09:00:00,83.2,76.8,29.90,South,176,2.0,11.2,81,0.00,,---,0.00,190.00,VWS V14.01,2013-06-15 14:00:00,
2013-06-15 09:05:00,84.0,77.2,29.90,SSE,161,1.0,12.2,80,0.00,,---,0.00,192.00,VWS V14.01,2013-06-15 14:05:00,
2013-06-15 09:10:00,84.3,76.7,29.90,South,189,5.0,17.2,78,0.00,,---,0.00,176.00,VWS V14.01,2013-06-15 14:10:00,
2013-06-15 09:15:00,84.5,76.5,29.90,South,173,10.0,16.2,77,0.00,,---,0.00,181.00,VWS V14.01,2013-06-15 14:15:00,
2013-06-15 09:20:00,84.1,76.5,29.90,South,173,6.0,15.2,78,0.00,,---,0.00,188.00,VWS V14.01,2013-06-15 14:20:00,
2013-06-15 09:25:00,84.0,76.0,29.90,SSW,195,3.0,14.2,77,0.00,,---,0.00,192.00,VWS V14.01,2013-06-15 14:25:00,
2013-06-15 09:30:00,84.1,76.5,29.90,SE,142,7.0,14.2,78,0.00,,---,0.00,258.00,VWS V14.01,2013-06-15 14:30:00,
2013-06-15 09:35:00,84.7,76.7,29.90,SSE,167,5.0,13.2,77,0.00,,---,0.00,239.00,VWS V14.01,2013-06-15 14:35:00,
2013-06-15 09:40:00,84.3,76.3,29.90,South,187,3.0,15.2,77,0.00,,---,0.00,251.00,VWS V14.01,2013-06-15 14:40:00,
2013-06-15 09:45:00,84.1,76.1,29.90,South,170,4.0,14.2,77,0.00,,---,0.00,230.00,VWS V14.01,2013-06-15 14:45:00,
2013-06-15 09:50:00,84.5,76.5,29.90,SSE,163,0.0,15.2,77,0.00,,---,0.00,413.00,VWS V14.01,2013-06-15 14:50:00,
2013-06-15 09:55:00,85.1,77.1,29.90,SSE,150,10.0,18.2,77,0.00,,---,0.00,475.00,VWS V14.01,2013-06-15 14:55:00,
2013-06-15 10:00:00,86.1,77.2,29.90,SE,138,4.0,10.2,75,0.00,,---,0.00,522.00,VWS V14.01,2013-06-15 15:00:00,
2013-06-15 10:05:00,85.9,76.7,29.90,SE,128,12.0,14.2,74,0.00,,---,0.00,577.00,VWS V14.01,2013-06-15 15:05:00,
2013-06-15 10:10:00,85.9,77.1,29.90,SE,146,7.0,15.2,75,0.00,,---,0.00,613.00,VWS V14.01,2013-06-15 15:10:00,
2013-06-15 10:15:00,86.1,77.2,29.90,SSE,155,4.0,12.2,75,0.00,,---,0.00,666.00,VWS V14.01,2013-06-15 15:15:00,
2013-06-15 10:20:00,87.0,77.7,29.90,SSE,150,3.0,11.2,74,0.00,,---,0.00,666.00,VWS V14.01,2013-06-15 15:20:00,
2013-06-15 10:25:00,87.2,77.5,29.90,SE,138,8.0,14.2,73,0.00,,---,0.00,731.00,VWS V14.01,2013-06-15 15:25:00,
2013-06-15 10:30:00,87.2,77.1,29.90,SE,134,15.0,16.2,72,0.00,,---,0.00,230.00,VWS V14.01,2013-06-15 15:30:00,
2013-06-15 10:35:00,86.7,77.0,29.90,SE,143,12.0,18.2,73,0.00,,---,0.00,728.00,VWS V14.01,2013-06-15 15:35:00,
2013-06-15 10:40:00,86.3,77.0,29.90,SE,130,10.0,15.2,74,0.00,,---,0.00,772.00,VWS V14.01,2013-06-15 15:40:00,
2013-06-15 10:45:00,86.7,77.0,29.91,SE,124,9.0,15.2,73,0.00,,---,0.00,775.00,VWS V14.01,2013-06-15 15:45:00,
2013-06-15 10:50:00,86.7,76.6,29.91,SE,144,10.0,16.2,72,0.00,,---,0.00,809.00,VWS V14.01,2013-06-15 15:50:00,
2013-06-15 10:55:00,86.7,77.0,29.91,SE,136,12.0,16.2,73,0.00,,---,0.00,856.00,VWS V14.01,2013-06-15 15:55:00,
2013-06-15 11:00:00,87.2,76.7,29.90,SE,143,6.0,15.2,71,0.00,,---,0.00,912.00,VWS V14.01,2013-06-15 16:00:00,
2013-06-15 11:05:00,87.8,77.2,29.90,SSE,153,10.0,17.2,71,0.00,,---,0.00,911.00,VWS V14.01,2013-06-15 16:05:00,
2013-06-15 11:10:00,87.4,76.4,29.90,South,171,10.0,15.2,70,0.00,,---,0.00,554.00,VWS V14.01,2013-06-15 16:10:00,
2013-06-15 11:15:00,86.7,76.6,29.90,SE,128,12.0,14.2,72,0.00,,---,0.00,522.00,VWS V14.01,2013-06-15 16:15:00,
2013-06-15 11:20:00,87.2,76.2,29.90,ESE,113,7.0,15.2,70,0.00,,---,0.00,879.00,VWS V14.01,2013-06-15 16:20:00,
2013-06-15 11:25:00,88.0,77.4,29.90,SSE,147,6.0,14.2,71,0.00,,---,0.00,795.00,VWS V14.01,2013-06-15 16:25:00,
2013-06-15 11:30:00,88.4,76.9,29.90,SE,137,12.0,16.2,69,0.00,,---,0.00,865.00,VWS V14.01,2013-06-15 16:30:00,
2013-06-15 11:35:00,87.4,76.8,29.90,SE,131,15.0,16.2,71,0.00,,---,0.00,874.00,VWS V14.01,2013-06-15 16:35:00,
2013-06-15 11:40:00,87.4,76.8,29.90,SE,143,5.0,14.2,71,0.00,,---,0.00,881.00,VWS V14.01,2013-06-15 16:40:00,
2013-06-15 11:45:00,87.8,76.8,29.90,South,169,6.0,15.2,70,0.00,,---,0.00,893.00,VWS V14.01,2013-06-15 16:45:00,
2013-06-15 11:50:00,88.4,76.5,29.90,ESE,123,10.0,15.2,68,0.00,,---,0.00,893.00,VWS V14.01,2013-06-15 16:50:00,
2013-06-15 11:55:00,88.2,76.8,29.90,SE,142,10.0,13.2,69,0.00,,---,0.00,907.00,VWS V14.01,2013-06-15 16:55:00,
2013-06-15 12:00:00,88.4,77.4,29.90,SE,134,6.0,16.2,70,0.00,,---,0.00,916.00,VWS V14.01,2013-06-15 17:00:00,
2013-06-15 12:05:00,89.0,76.6,29.90,ESE,123,11.0,16.2,67,0.00,,---,0.00,926.00,VWS V14.01,2013-06-15 17:05:00,
2013-06-15 12:10:00,88.6,76.7,29.90,SSE,150,9.0,18.2,68,0.00,,---,0.00,930.00,VWS V14.01,2013-06-15 17:10:00,
2013-06-15 12:15:00,88.8,76.4,29.90,SSE,150,6.0,15.2,67,0.00,,---,0.00,944.00,VWS V14.01,2013-06-15 17:15:00,
2013-06-15 12:20:00,89.3,76.9,29.90,SE,145,14.0,17.2,67,0.00,,---,0.00,947.00,VWS V14.01,2013-06-15 17:20:00,
2013-06-15 12:25:00,89.0,76.6,29.90,SE,132,7.0,13.2,67,0.00,,---,0.00,949.00,VWS V14.01,2013-06-15 17:25:00,
2013-06-15 12:30:00,89.3,75.5,29.90,SE,132,10.0,16.2,64,0.00,,---,0.00,958.00,VWS V14.01,2013-06-15 17:30:00,
2013-06-15 12:35:00,88.8,76.4,29.89,SSE,150,6.0,15.2,67,0.00,,---,0.00,965.00,VWS V14.01,2013-06-15 17:35:00,
2013-06-15 12:40:00,89.7,76.8,29.89,South,173,0.0,13.2,66,0.00,,---,0.00,969.00,VWS V14.01,2013-06-15 17:40:00,
2013-06-15 12:45:00,89.5,76.7,29.89,ESE,111,7.0,15.2,66,0.00,,---,0.00,972.00,VWS V14.01,2013-06-15 17:45:00,
2013-06-15 12:50:00,88.8,76.4,29.89,SE,140,13.0,17.2,67,0.00,,---,0.00,981.00,VWS V14.01,2013-06-15 17:50:00,
2013-06-15 12:55:00,88.4,76.5,29.89,SE,134,10.0,16.2,68,0.00,,---,0.00,983.00,VWS V14.01,2013-06-15 17:55:00,
2013-06-15 13:00:00,89.0,76.2,29.89,SE,142,15.0,16.2,66,0.00,,---,0.00,984.00,VWS V14.01,2013-06-15 18:00:00,
2013-06-15 13:05:00,89.0,76.6,29.89,SE,136,17.0,18.2,67,0.00,,---,0.00,990.00,VWS V14.01,2013-06-15 18:05:00,
2013-06-15 13:10:00,89.3,76.5,29.89,SSE,148,12.0,18.2,66,0.00,,---,0.00,990.00,VWS V14.01,2013-06-15 18:10:00,
2013-06-15 13:15:00,89.3,76.9,29.89,ESE,107,9.0,15.2,67,0.00,,---,0.00,990.00,VWS V14.01,2013-06-15 18:15:00,
2013-06-15 13:20:00,90.1,76.8,29.89,SE,132,12.0,16.2,65,0.00,,---,0.00,997.00,VWS V14.01,2013-06-15 18:20:00,
2013-06-15 13:25:00,90.3,77.4,29.89,SSE,151,9.0,15.2,66,0.00,,---,0.00,998.00,VWS V14.01,2013-06-15 18:25:00,
2013-06-15 13:30:00,89.0,76.6,29.89,East,88,9.0,15.2,67,0.00,,---,0.00,1004.00,VWS V14.01,2013-06-15 18:30:00,
2013-06-15 13:35:00,89.0,76.6,29.88,SE,132,8.0,15.2,67,0.00,,---,0.00,1004.00,VWS V14.01,2013-06-15 18:35:00,
2013-06-15 13:40:00,89.0,76.6,29.88,SSE,157,5.0,17.2,67,0.00,,---,0.00,1002.00,VWS V14.01,2013-06-15 18:40:00,
2013-06-15 13:45:00,89.0,76.6,29.88,ESE,123,12.0,17.2,67,0.00,,---,0.00,998.00,VWS V14.01,2013-06-15 18:45:00,
2013-06-15 13:50:00,89.3,76.5,29.88,ESE,115,11.0,16.2,66,0.00,,---,0.00,1004.00,VWS V14.01,2013-06-15 18:50:00,
2013-06-15 13:55:00,90.3,77.9,29.88,SE,134,11.0,15.2,67,0.00,,---,0.00,1000.00,VWS V14.01,2013-06-15 18:55:00,
2013-06-15 14:00:00,90.3,76.5,29.88,SSE,148,5.0,14.2,64,0.00,,---,0.00,1002.00,VWS V14.01,2013-06-15 19:00:00,
2013-06-15 14:05:00,90.1,76.8,29.87,SE,125,13.0,14.2,65,0.00,,---,0.00,998.00,VWS V14.01,2013-06-15 19:05:00,
2013-06-15 14:10:00,89.9,76.6,29.87,ESE,114,9.0,13.2,65,0.00,,---,0.00,995.00,VWS V14.01,2013-06-15 19:10:00,
2013-06-15 14:15:00,90.1,76.3,29.87,ESE,118,7.0,16.2,64,0.00,,---,0.00,995.00,VWS V14.01,2013-06-15 19:15:00,
2013-06-15 14:20:00,90.3,76.9,29.87,East,89,9.0,14.2,65,0.00,,---,0.00,988.00,VWS V14.01,2013-06-15 19:20:00,
2013-06-15 14:25:00,90.5,77.1,29.87,ESE,120,14.0,17.2,65,0.00,,---,0.00,983.00,VWS V14.01,2013-06-15 19:25:00,
2013-06-15 14:30:00,90.3,76.9,29.87,SE,144,8.0,15.2,65,0.00,,---,0.00,977.00,VWS V14.01,2013-06-15 19:30:00,
2013-06-15 14:35:00,89.9,77.0,29.87,ESE,113,7.0,15.2,66,0.00,,---,0.00,976.00,VWS V14.01,2013-06-15 19:35:00,
2013-06-15 14:40:00,89.9,76.6,29.87,SSE,161,4.0,14.2,65,0.00,,---,0.00,970.00,VWS V14.01,2013-06-15 19:40:00,
2013-06-15 14:45:00,89.9,75.1,29.87,ESE,115,8.0,16.2,62,0.00,,---,0.00,965.00,VWS V14.01,2013-06-15 19:45:00,
2013-06-15 14:50:00,90.3,76.5,29.87,East,94,10.0,13.2,64,0.00,,---,0.00,960.00,VWS V14.01,2013-06-15 19:50:00,
2013-06-15 14:55:00,90.3,75.5,29.87,SE,132,13.0,15.2,62,0.00,,---,0.00,935.00,VWS V14.01,2013-06-15 19:55:00,
2013-06-15 15:00:00,90.5,75.7,29.87,SE,142,4.0,17.2,62,0.00,,---,0.00,932.00,VWS V14.01,2013-06-15 20:00:00,
2013-06-15 15:05:00,90.5,76.2,29.86,ESE,116,11.0,13.2,63,0.00,,---,0.00,930.00,VWS V14.01,2013-06-15 20:05:00,
2013-06-15 15:10:00,90.3,76.5,29.86,ESE,103,7.0,14.2,64,0.00,,---,0.00,918.00,VWS V14.01,2013-06-15 20:10:00,
2013-06-15 15:15:00,90.7,75.9,29.86,SE,125,12.0,14.2,62,0.00,,---,0.00,916.00,VWS V14.01,2013-06-15 20:15:00,
2013-06-15 15:20:00,89.7,77.3,29.86,ESE,109,3.0,17.2,67,0.00,,---,0.00,905.00,VWS V14.01,2013-06-15 20:20:00,
2013-06-15 15:25:00,89.9,76.6,29.86,East,92,10.0,15.2,65,0.00,,---,0.00,891.00,VWS V14.01,2013-06-15 20:25:00,
2013-06-15 15:30:00,90.3,77.4,29.86,ESE,120,12.0,16.2,66,0.00,,---,0.00,893.00,VWS V14.01,2013-06-15 20:30:00,
2013-06-15 15:35:00,90.5,77.6,29.86,ESE,119,14.0,15.2,66,0.00,,---,0.00,877.00,VWS V14.01,2013-06-15 20:35:00,
2013-06-15 15:40:00,90.1,76.3,29.86,East,90,13.0,15.2,64,0.00,,---,0.00,870.00,VWS V14.01,2013-06-15 20:40:00,
2013-06-15 15:45:00,90.1,75.8,29.86,East,90,7.0,17.2,63,0.00,,---,0.00,860.00,VWS V14.01,2013-06-15 20:45:00,
2013-06-15 15:50:00,89.9,76.6,29.85,East,84,7.0,16.2,65,0.00,,---,0.00,851.00,VWS V14.01,2013-06-15 20:50:00,
2013-06-15 15:55:00,89.9,76.6,29.85,East,83,6.0,17.2,65,0.00,,---,0.00,840.00,VWS V14.01,2013-06-15 20:55:00,
2013-06-15 16:00:00,89.9,76.1,29.85,SE,130,12.0,16.2,64,0.00,,---,0.00,833.00,VWS V14.01,2013-06-15 21:00:00,
2013-06-15 16:05:00,90.5,76.7,29.85,SE,136,7.0,17.2,64,0.00,,---,0.00,816.00,VWS V14.01,2013-06-15 21:05:00,
2013-06-15 16:10:00,90.3,76.5,29.85,East,84,13.0,14.2,64,0.00,,---,0.00,809.00,VWS V14.01,2013-06-15 21:10:00,
2013-06-15 16:15:00,89.7,75.4,29.85,East,101,11.0,15.2,63,0.00,,---,0.00,793.00,VWS V14.01,2013-06-15 21:15:00,
2013-06-15 16:20:00,90.1,75.3,29.84,ESE,109,14.0,15.2,62,0.00,,---,0.00,782.00,VWS V14.01,2013-06-15 21:20:00,
2013-06-15 16:25:00,89.9,75.6,29.84,East,99,5.0,15.2,63,0.00,,---,0.00,772.00,VWS V14.01,2013-06-15 21:25:00,
2013-06-15 16:30:00,89.9,76.6,29.84,East,82,11.0,16.2,65,0.00,,---,0.00,733.00,VWS V14.01,2013-06-15 21:30:00,
2013-06-15 16:35:00,90.3,76.0,29.84,East,94,14.0,17.2,63,0.00,,---,0.00,617.00,VWS V14.01,2013-06-15 21:35:00,
2013-06-15 16:40:00,89.9,75.6,29.84,SE,133,18.0,19.2,63,0.00,,---,0.00,647.00,VWS V14.01,2013-06-15 21:40:00,
2013-06-15 16:45:00,89.0,76.2,29.84,East,90,6.0,16.2,66,0.00,,---,0.00,663.00,VWS V14.01,2013-06-15 21:45:00,
2013-06-15 16:50:00,89.0,76.6,29.83,SSE,150,8.0,17.2,67,0.00,,---,0.00,645.00,VWS V14.01,2013-06-15 21:50:00,
2013-06-15 16:55:00,89.0,76.6,29.83,ESE,111,16.0,17.2,67,0.00,,---,0.00,645.00,VWS V14.01,2013-06-15 21:55:00,
2013-06-15 17:00:00,89.5,76.7,29.83,ENE,74,5.0,14.2,66,0.00,,---,0.00,656.00,VWS V14.01,2013-06-15 22:00:00,
2013-06-15 17:05:00,90.3,77.9,29.83,East,96,4.0,15.2,67,0.00,,---,0.00,650.00,VWS V14.01,2013-06-15 22:05:00,
2013-06-15 17:10:00,89.9,77.0,29.83,SSE,148,9.0,14.2,66,0.00,,---,0.00,628.00,VWS V14.01,2013-06-15 22:10:00,
2013-06-15 17:15:00,88.8,76.9,29.83,ESE,108,9.0,15.2,68,0.00,,---,0.00,610.00,VWS V14.01,2013-06-15 22:15:00,
2013-06-15 17:20:00,88.2,76.8,29.83,SE,125,13.0,17.2,69,0.00,,---,0.00,596.00,VWS V14.01,2013-06-15 22:20:00,
2013-06-15 17:25:00,87.8,77.2,29.83,ESE,113,7.0,17.2,71,0.00,,---,0.00,577.00,VWS V14.01,2013-06-15 22:25:00,
2013-06-15 17:30:00,88.0,76.6,29.83,SE,130,12.0,16.2,69,0.00,,---,0.00,555.00,VWS V14.01,2013-06-15 22:30:00,
2013-06-15 17:35:00,88.4,76.9,29.83,SE,134,10.0,16.2,69,0.00,,---,0.00,540.00,VWS V14.01,2013-06-15 22:35:00,
2013-06-15 17:40:00,88.2,77.2,29.83,ESE,122,10.0,20.2,70,0.00,,---,0.00,526.00,VWS V14.01,2013-06-15 22:40:00,
2013-06-15 17:45:00,88.2,76.8,29.83,ESE,103,10.0,18.2,69,0.00,,---,0.00,503.00,VWS V14.01,2013-06-15 22:45:00,
2013-06-15 17:50:00,87.8,76.8,29.83,SE,130,7.0,16.2,70,0.00,,---,0.00,487.00,VWS V14.01,2013-06-15 22:50:00,
2013-06-15 17:55:00,87.4,76.8,29.83,ESE,121,11.0,17.2,71,0.00,,---,0.00,469.00,VWS V14.01,2013-06-15 22:55:00,
2013-06-15 18:00:00,87.8,76.8,29.83,ESE,107,13.0,17.2,70,0.00,,---,0.00,450.00,VWS V14.01,2013-06-15 23:00:00,
2013-06-15 18:05:00,87.4,76.4,29.82,ESE,119,13.0,18.2,70,0.00,,---,0.00,431.00,VWS V14.01,2013-06-15 23:05:00,
2013-06-15 18:10:00,87.4,77.7,29.82,SE,138,9.0,16.2,73,0.00,,---,0.00,410.00,VWS V14.01,2013-06-15 23:10:00,
2013-06-15 18:15:00,87.2,77.9,29.82,ESE,113,11.0,16.2,74,0.00,,---,0.00,404.00,VWS V14.01,2013-06-15 23:15:00,
2013-06-15 18:20:00,87.2,77.1,29.83,ESE,115,7.0,18.2,72,0.00,,---,0.00,374.00,VWS V14.01,2013-06-15 23:20:00,
2013-06-15 18:25:00,87.2,77.1,29.83,ESE,110,12.0,17.2,72,0.00,,---,0.00,350.00,VWS V14.01,2013-06-15 23:25:00,
2013-06-15 18:30:00,87.4,76.8,29.83,SE,143,10.0,16.2,71,0.00,,---,0.00,343.00,VWS V14.01,2013-06-15 23:30:00,
2013-06-15 18:35:00,87.4,76.4,29.82,SE,143,16.0,17.2,70,0.00,,---,0.00,318.00,VWS V14.01,2013-06-15 23:35:00,
2013-06-15 18:40:00,87.2,77.1,29.82,ESE,119,10.0,13.2,72,0.00,,---,0.00,299.00,VWS V14.01,2013-06-15 23:40:00,
2013-06-15 18:45:00,86.5,77.2,29.82,SE,133,11.0,18.2,74,0.00,,---,0.00,292.00,VWS V14.01,2013-06-15 23:45:00,
2013-06-15 18:50:00,86.1,76.8,29.82,SE,128,9.0,16.2,74,0.00,,---,0.00,265.00,VWS V14.01,2013-06-15 23:50:00,
2013-06-15 18:55:00,86.1,76.8,29.82,East,92,5.0,15.2,74,0.00,,---,0.00,253.00,VWS V14.01,2013-06-15 23:55:00,
2013-06-15 19:00:00,85.9,76.7,29.82,SSE,154,7.0,17.2,74,0.00,,---,0.00,241.00,VWS V14.01,2013-06-16 00:00:00,
2013-06-15 19:05:00,85.5,76.7,29.83,SE,130,17.0,18.2,75,0.00,,---,0.00,216.00,VWS V14.01,2013-06-16 00:05:00,
2013-06-15 19:10:00,85.1,76.7,29.83,South,174,13.0,19.2,76,0.00,,---,0.00,216.00,VWS V14.01,2013-06-16 00:10:00,
2013-06-15 19:15:00,84.7,77.1,29.83,SSE,163,9.0,16.2,78,0.00,,---,0.00,190.00,VWS V14.01,2013-06-16 00:15:00,
2013-06-15 19:20:00,84.7,77.5,29.82,ESE,123,9.0,18.2,79,0.00,,---,0.00,172.00,VWS V14.01,2013-06-16 00:20:00,
2013-06-15 19:25:00,84.9,77.7,29.82,SE,132,13.0,18.2,79,0.00,,---,0.00,153.00,VWS V14.01,2013-06-16 00:25:00,
2013-06-15 19:30:00,84.7,77.5,29.82,SE,124,14.0,18.2,79,0.00,,---,0.00,100.00,VWS V14.01,2013-06-16 00:30:00,
2013-06-15 19:34:00,84.7,77.5,29.83,ESE,115,8.0,17.2,79,0.00,,---,0.00,72.00,VWS V14.01,2013-06-16 00:34:00,
2013-06-15 19:35:00,84.9,77.7,29.83,SSE,167,6.0,17.2,79,0.00,,---,0.00,58.00,VWS V14.01,2013-06-16 00:35:00,
2013-06-15 19:39:00,85.1,77.9,29.83,SE,126,6.0,16.2,79,0.00,,---,0.00,54.00,VWS V14.01,2013-06-16 00:39:00,
2013-06-15 19:40:00,85.1,77.5,29.83,SE,145,5.0,16.2,78,0.00,,---,0.00,54.00,VWS V14.01,2013-06-16 00:40:00,
2013-06-15 19:44:00,84.9,77.7,29.83,ESE,111,12.0,17.2,79,0.00,,---,0.00,58.00,VWS V14.01,2013-06-16 00:44:00,
2013-06-15 19:45:00,84.7,77.5,29.83,SE,130,12.0,17.2,79,0.00,,---,0.00,58.00,VWS V14.01,2013-06-16 00:45:00,
2013-06-15 19:49:00,84.3,77.1,29.83,ESE,122,10.0,17.2,79,0.00,,---,0.00,46.00,VWS V14.01,2013-06-16 00:49:00,
2013-06-15 19:50:00,84.1,77.3,29.83,SSE,147,10.0,19.2,80,0.00,,---,0.00,44.00,VWS V14.01,2013-06-16 00:50:00,
2013-06-15 19:54:00,83.8,77.3,29.83,ESE,120,9.0,18.2,81,0.00,,---,0.00,42.00,VWS V14.01,2013-06-16 00:54:00,
2013-06-15 19:55:00,83.8,77.3,29.83,SE,130,10.0,18.2,81,0.00,,---,0.00,39.00,VWS V14.01,2013-06-16 00:55:00,
2013-06-15 19:59:00,83.6,77.5,29.83,SSE,150,6.0,19.2,82,0.00,,---,0.00,35.00,VWS V14.01,2013-06-16 00:59:00,
2013-06-15 20:00:00,83.6,77.5,29.84,SE,130,5.0,19.2,82,0.00,,---,0.00,28.00,VWS V14.01,2013-06-16 01:00:00,
2013-06-15 20:04:00,83.6,77.5,29.84,SSE,156,12.0,19.2,82,0.00,,---,0.00,23.00,VWS V14.01,2013-06-16 01:04:00,
2013-06-15 20:05:00,83.4,77.0,29.84,SSE,152,9.0,19.2,81,0.00,,---,0.00,21.00,VWS V14.01,2013-06-16 01:05:00,
2013-06-15 20:09:00,83.6,77.5,29.84,SSE,167,10.0,18.2,82,0.00,,---,0.00,19.00,VWS V14.01,2013-06-16 01:09:00,
2013-06-15 20:10:00,83.6,77.5,29.84,SSE,149,6.0,18.2,82,0.00,,---,0.00,16.00,VWS V14.01,2013-06-16 01:10:00,
2013-06-15 20:14:00,84.0,77.5,29.84,ESE,120,10.0,16.2,81,0.00,,---,0.00,12.00,VWS V14.01,2013-06-16 01:14:00,
2013-06-15 20:15:00,83.8,77.3,29.84,SE,142,9.0,20.2,81,0.00,,---,0.00,9.00,VWS V14.01,2013-06-16 01:15:00,
2013-06-15 20:19:00,83.6,77.5,29.84,SE,124,5.0,17.2,82,0.00,,---,0.00,5.00,VWS V14.01,2013-06-16 01:19:00,
2013-06-15 20:20:00,83.6,77.5,29.84,SE,137,9.0,17.2,82,0.00,,---,0.00,0.00,VWS V14.01,2013-06-16 01:20:00,
2013-06-15 20:24:00,83.4,77.7,29.84,SE,140,9.0,17.2,83,0.00,,---,0.00,0.00,VWS V14.01,2013-06-16 01:24:00,
2013-06-15 20:25:00,83.4,77.3,29.84,SE,134,9.0,17.2,82,0.00,,---,0.00,0.00,VWS V14.01,2013-06-16 01:25:00,
2013-06-15 20:29:00,83.2,77.5,29.84,ESE,122,8.0,18.2,83,0.00,,---,0.00,0.00,VWS V14.01,2013-06-16 01:29:00,
2013-06-15 20:30:00,83.2,77.5,29.83,SE,136,10.0,18.2,83,0.00,,---,0.00,0.00,VWS V14.01,2013-06-16 01:30:00,
2013-06-15 20:34:00,83.2,77.5,29.83,SSE,158,9.0,16.2,83,0.00,,---,0.00,0.00,VWS V14.01,2013-06-16 01:34:00,
2013-06-15 20:35:00,83.2,77.5,29.83,SE,134,5.0,16.2,83,0.00,,---,0.00,0.00,VWS V14.01,2013-06-16 01:35:00,
2013-06-15 20:39:00,83.0,77.3,29.83,SE,132,5.0,17.2,83,0.00,,---,0.00,0.00,VWS V14.01,2013-06-16 01:39:00,
2013-06-15 20:40:00,83.0,77.3,29.83,SE,134,13.0,17.2,83,0.00,,---,0.00,0.00,VWS V14.01,2013-06-16 01:40:00,
2013-06-15 20:44:00,82.8,77.1,29.83,SSE,148,12.0,19.2,83,0.00,,---,0.00,0.00,VWS V14.01,2013-06-16 01:44:00,
2013-06-15 20:45:00,83.0,77.3,29.84,SSE,148,12.0,21.2,83,0.00,,---,0.00,0.00,VWS V14.01,2013-06-16 01:45:00,
2013-06-15 20:49:00,83.2,77.5,29.84,SE,134,13.0,19.2,83,0.00,,---,0.00,0.00,VWS V14.01,2013-06-16 01:49:00,
2013-06-15 20:50:00,83.2,77.5,29.84,SSE,161,11.0,19.2,83,0.00,,---,0.00,0.00,VWS V14.01,2013-06-16 01:50:00,
2013-06-15 20:54:00,83.0,77.7,29.84,SE,129,10.0,21.2,84,0.00,,---,0.00,0.00,VWS V14.01,2013-06-16 01:54:00,
2013-06-15 20:55:00,82.8,77.5,29.84,SE,135,16.0,21.2,84,0.00,,---,0.00,0.00,VWS V14.01,2013-06-16 01:55:00,
2013-06-15 20:59:00,82.8,77.5,29.84,SE,137,10.0,17.2,84,0.00,,---,0.00,0.00,VWS V14.01,2013-06-16 01:59:00,
2013-06-15 21:00:00,82.8,77.5,29.84,ESE,117,11.0,17.2,84,0.00,,---,0.00,0.00,VWS V14.01,2013-06-16 02:00:00,
2013-06-15 21:04:00,82.8,77.5,29.84,SE,137,9.0,17.2,84,0.00,,---,0.00,0.00,VWS V14.01,2013-06-16 02:04:00,
2013-06-15 21:05:00,83.0,77.7,29.84,SE,144,12.0,17.2,84,0.00,,---,0.00,0.00,VWS V14.01,2013-06-16 02:05:00,
2013-06-15 21:09:00,82.8,77.5,29.84,ESE,111,6.0,21.2,84,0.00,,---,0.00,0.00,VWS V14.01,2013-06-16 02:09:00,
2013-06-15 21:10:00,82.8,77.5,29.84,SSE,149,8.0,21.2,84,0.00,,---,0.00,0.00,VWS V14.01,2013-06-16 02:10:00,
2013-06-15 21:14:00,83.0,77.7,29.84,ESE,120,12.0,17.2,84,0.00,,---,0.00,0.00,VWS V14.01,2013-06-16 02:14:00,
2013-06-15 21:15:00,83.0,77.7,29.84,ESE,116,6.0,17.2,84,0.00,,---,0.00,0.00,VWS V14.01,2013-06-16 02:15:00,
2013-06-15 21:19:00,83.0,78.0,29.84,SE,132,5.0,17.2,85,0.00,,---,0.00,0.00,VWS V14.01,2013-06-16 02:19:00,
2013-06-15 21:20:00,83.0,78.0,29.84,SE,126,7.0,17.2,85,0.00,,---,0.00,0.00,VWS V14.01,2013-06-16 02:20:00,
2013-06-15 21:24:00,83.0,77.7,29.84,ESE,122,8.0,19.2,84,0.00,,---,0.00,0.00,VWS V14.01,2013-06-16 02:24:00,
2013-06-15 21:25:00,83.0,77.7,29.84,SE,144,5.0,19.2,84,0.00,,---,0.00,0.00,VWS V14.01,2013-06-16 02:25:00,
2013-06-15 21:29:00,83.2,77.5,29.84,SE,140,13.0,16.2,83,0.00,,---,0.00,0.00,VWS V14.01,2013-06-16 02:29:00,
2013-06-15 21:30:00,83.2,77.5,29.85,SSE,148,4.0,17.2,83,0.00,,---,0.00,0.00,VWS V14.01,2013-06-16 02:30:00,
2013-06-15 21:34:00,82.8,77.1,29.85,SE,138,7.0,14.2,83,0.00,,---,0.00,0.00,VWS V14.01,2013-06-16 02:34:00,
2013-06-15 21:35:00,82.8,76.8,29.85,SE,146,12.0,18.2,82,0.00,,---,0.00,0.00,VWS V14.01,2013-06-16 02:35:00,
2013-06-15 21:39:00,82.6,76.9,29.85,SSE,148,5.0,20.2,83,0.00,,---,0.00,0.00,VWS V14.01,2013-06-16 02:39:00,
2013-06-15 21:40:00,82.6,76.9,29.85,SSE,164,6.0,20.2,83,0.00,,---,0.00,0.00,VWS V14.01,2013-06-16 02:40:00,
2013-06-15 21:44:00,82.6,76.9,29.85,SE,144,6.0,13.2,83,0.00,,---,0.00,0.00,VWS V14.01,2013-06-16 02:44:00,
2013-06-15 21:45:00,82.6,77.3,29.86,SSE,148,7.0,14.2,84,0.00,,---,0.00,0.00,VWS V14.01,2013-06-16 02:45:00,
2013-06-15 21:49:00,82.6,77.3,29.86,SE,126,9.0,16.2,84,0.00,,---,0.00,0.00,VWS V14.01,2013-06-16 02:49:00,
2013-06-15 21:50:00,82.6,77.3,29.86,South,173,6.0,16.2,84,0.00,,---,0.00,0.00,VWS V14.01,2013-06-16 02:50:00,
2013-06-15 21:54:00,82.6,77.3,29.86,SE,138,10.0,17.2,84,0.00,,---,0.00,0.00,VWS V14.01,2013-06-16 02:54:00,
2013-06-15 21:55:00,82.6,77.3,29.86,SE,133,6.0,17.2,84,0.00,,---,0.00,0.00,VWS V14.01,2013-06-16 02:55:00,
2013-06-15 21:59:00,82.6,76.9,29.86,SSE,149,5.0,17.2,83,0.00,,---,0.00,0.00,VWS V14.01,2013-06-16 02:59:00,
2013-06-15 22:00:00,82.8,77.1,29.87,SSE,154,5.0,17.2,83,0.00,,---,0.00,0.00,VWS V14.01,2013-06-16 03:00:00,
2013-06-15 22:04:00,82.8,77.1,29.87,SSE,151,6.0,18.2,83,0.00,,---,0.00,0.00,VWS V14.01,2013-06-16 03:04:00,
2013-06-15 22:05:00,82.8,77.1,29.87,SSE,153,12.0,18.2,83,0.00,,---,0.00,0.00,VWS V14.01,2013-06-16 03:05:00,
2013-06-15 22:09:00,83.0,77.3,29.87,SSE,153,9.0,16.2,83,0.00,,---,0.00,0.00,VWS V14.01,2013-06-16 03:09:00,
2013-06-15 22:10:00,83.0,77.3,29.87,South,174,6.0,16.2,83,0.00,,---,0.00,0.00,VWS V14.01,2013-06-16 03:10:00,
2013-06-15 22:14:00,83.2,77.5,29.87,SE,146,7.0,12.2,83,0.00,,---,0.00,0.00,VWS V14.01,2013-06-16 03:14:00,
2013-06-15 22:15:00,83.0,77.3,29.87,ESE,115,5.0,12.2,83,0.00,,---,0.00,0.00,VWS V14.01,2013-06-16 03:15:00,
2013-06-15 22:19:00,82.6,76.9,29.87,SSE,157,10.0,18.2,83,0.00,,---,0.00,0.00,VWS V14.01,2013-06-16 03:19:00,
2013-06-15 22:20:00,82.6,76.9,29.87,SE,133,5.0,18.2,83,0.00,,---,0.00,0.00,VWS V14.01,2013-06-16 03:20:00,
2013-06-15 22:24:00,82.4,76.7,29.87,SSE,157,9.0,17.2,83,0.00,,---,0.00,0.00,VWS V14.01,2013-06-16 03:24:00,
2013-06-15 22:25:00,82.4,76.7,29.87,SE,140,6.0,17.2,83,0.00,,---,0.00,0.00,VWS V14.01,2013-06-16 03:25:00,
2013-06-15 22:29:00,82.4,76.7,29.87,SE,136,4.0,14.2,83,0.00,,---,0.00,0.00,VWS V14.01,2013-06-16 03:29:00,
2013-06-15 22:30:00,82.4,77.1,29.87,SSE,166,7.0,15.2,84,0.00,,---,0.00,0.00,VWS V14.01,2013-06-16 03:30:00,
2013-06-15 22:34:00,82.4,77.1,29.87,SE,146,10.0,13.2,84,0.00,,---,0.00,0.00,VWS V14.01,2013-06-16 03:34:00,
2013-06-15 22:35:00,82.4,77.1,29.87,SE,136,16.0,17.2,84,0.00,,---,0.00,0.00,VWS V14.01,2013-06-16 03:35:00,
2013-06-15 22:39:00,82.4,77.1,29.87,ESE,117,12.0,17.2,84,0.00,,---,0.00,0.00,VWS V14.01,2013-06-16 03:39:00,
2013-06-15 22:40:00,82.2,76.9,29.87,SSE,153,7.0,17.2,84,0.00,,---,0.00,0.00,VWS V14.01,2013-06-16 03:40:00,
2013-06-15 22:44:00,82.4,77.1,29.87,SE,131,10.0,16.2,84,0.00,,---,0.00,0.00,VWS V14.01,2013-06-16 03:44:00,
2013-06-15 22:45:00,82.4,77.1,29.87,SE,140,10.0,16.2,84,0.00,,---,0.00,0.00,VWS V14.01,2013-06-16 03:45:00,
2013-06-15 22:49:00,82.4,77.1,29.87,SSE,164,18.0,19.2,84,0.00,,---,0.00,0.00,VWS V14.01,2013-06-16 03:49:00,
2013-06-15 22:50:00,82.4,76.7,29.87,SE,135,11.0,19.2,83,0.00,,---,0.00,0.00,VWS V14.01,2013-06-16 03:50:00,
2013-06-15 22:54:00,82.6,77.3,29.87,SSE,160,0.0,13.2,84,0.00,,---,0.00,0.00,VWS V14.01,2013-06-16 03:54:00,
2013-06-15 22:55:00,82.6,75.4,29.87,SE,142,5.0,17.2,79,0.00,,---,0.00,0.00,VWS V14.01,2013-06-16 03:55:00,
2013-06-15 22:59:00,82.8,77.1,29.87,SE,136,11.0,17.2,83,0.00,,---,0.00,0.00,VWS V14.01,2013-06-16 03:59:00,
2013-06-15 23:00:00,82.8,77.1,29.88,SE,144,12.0,17.2,83,0.00,,---,0.00,0.00,VWS V14.01,2013-06-16 04:00:00,
2013-06-15 23:01:00,82.8,77.1,29.88,SE,135,6.0,17.2,83,0.00,,---,0.00,0.00,VWS V14.01,2013-06-16 04:01:00,
2013-06-15 23:05:00,82.4,76.7,29.88,SE,136,7.0,15.2,83,0.00,,---,0.00,0.00,VWS V14.01,2013-06-16 04:05:00,
2013-06-15 23:06:00,82.4,76.7,29.88,SE,136,7.0,15.2,83,0.00,,---,0.00,0.00,VWS V14.01,2013-06-16 04:06:00,
2013-06-15 23:10:00,82.2,76.9,29.88,SE,140,5.0,15.2,84,0.00,,---,0.00,0.00,VWS V14.01,2013-06-16 04:10:00,
2013-06-15 23:11:00,82.2,76.9,29.88,SE,141,8.0,15.2,84,0.00,,---,0.00,0.00,VWS V14.01,2013-06-16 04:11:00,
2013-06-15 23:15:00,82.2,76.9,29.88,SSE,157,11.0,15.2,84,0.00,,---,0.00,0.00,VWS V14.01,2013-06-16 04:15:00,
2013-06-15 23:16:00,82.2,76.9,29.88,SSE,161,6.0,15.2,84,0.00,,---,0.00,0.00,VWS V14.01,2013-06-16 04:16:00,
2013-06-15 23:20:00,82.0,76.7,29.88,SE,140,10.0,13.2,84,0.00,,---,0.00,0.00,VWS V14.01,2013-06-16 04:20:00,
2013-06-15 23:21:00,82.0,76.7,29.88,SE,135,7.0,13.2,84,0.00,,---,0.00,0.00,VWS V14.01,2013-06-16 04:21:00,
2013-06-15 23:25:00,82.0,77.1,29.88,SSE,165,10.0,14.2,85,0.00,,---,0.00,0.00,VWS V14.01,2013-06-16 04:25:00,
2013-06-15 23:26:00,82.0,77.1,29.88,SSE,165,10.0,14.2,85,0.00,,---,0.00,0.00,VWS V14.01,2013-06-16 04:26:00,
2013-06-15 23:30:00,82.0,77.1,29.89,SE,146,8.0,16.2,85,0.00,,---,0.00,0.00,VWS V14.01,2013-06-16 04:30:00,
2013-06-15 23:31:00,82.0,77.1,29.89,SE,144,6.0,16.2,85,0.00,,---,0.00,0.00,VWS V14.01,2013-06-16 04:31:00,
2013-06-15 23:35:00,82.0,76.7,29.89,SSE,159,5.0,16.2,84,0.00,,---,0.00,0.00,VWS V14.01,2013-06-16 04:35:00,
2013-06-15 23:36:00,82.0,76.7,29.89,SSE,165,4.0,16.2,84,0.00,,---,0.00,0.00,VWS V14.01,2013-06-16 04:36:00,
2013-06-15 23:40:00,82.2,77.2,29.89,SE,135,10.0,17.2,85,0.00,,---,0.00,0.00,VWS V14.01,2013-06-16 04:40:00,
2013-06-15 23:41:00,82.2,77.2,29.89,SE,140,6.0,17.2,85,0.00,,---,0.00,0.00,VWS V14.01,2013-06-16 04:41:00,
2013-06-15 23:45:00,82.6,77.3,29.89,South,178,8.0,14.2,84,0.00,,---,0.00,0.00,VWS V14.01,2013-06-16 04:45:00,
2013-06-15 23:46:00,82.6,77.3,29.89,SSE,159,7.0,14.2,84,0.00,,---,0.00,0.00,VWS V14.01,2013-06-16 04:46:00,
2013-06-15 23:50:00,82.4,77.1,29.89,SSE,148,9.0,14.2,84,0.00,,---,0.00,0.00,VWS V14.01,2013-06-16 04:50:00,
2013-06-15 23:51:00,82.4,77.1,29.89,SSE,148,9.0,14.2,84,0.00,,---,0.00,0.00,VWS V14.01,2013-06-16 04:51:00,
2013-06-15 23:55:00,82.2,76.9,29.89,SSE,148,6.0,17.2,84,0.00,,---,0.00,0.00,VWS V14.01,2013-06-16 04:55:00,
2013-06-15 23:56:00,82.2,76.9,29.89,SE,145,6.0,17.2,84,0.00,,---,0.00,0.00,VWS V14.01,2013-06-16 04:56:00,